Terug naar catalogus

ARIANE 5 R/B

ActiefGTO
NORAD 28787·ROCKET BODY·🇫🇷 France

Gelanceerd Aug 11, 2005 vanaf Guiana Space Centre

Loading…

TLE

VerouderdSource: Space-Track

Epoch: Sep 13, 2026, 17:51 UTC

1 28787U 05028B   26256.74424478 -.00000067  00000-0  31972-3 0  9997
2 28787   6.5961 189.4679 7163684 216.5658  61.8766  2.26683645174652

Volg ARIANE 5 R/B in realtime met AllMySat

Download on the App Store